Weather History for Point Pleasant, WV

Change the Weather History Date:

Sunday, November 25, 2012

  Actual Average (KHTS) Record (KHTS)
Temperature  
Mean Temperature 34 °F 43 °F  
Max Temperature 44 °F 53 °F 74 °F (1946)
Min Temperature 24 °F 34 °F 7 °F (1950)
Degree Days  
Heating Degree Days 31 22  
Month to date heating degree days 435  
Since 1 July heating degree days 774  
Cooling Degree Days 0 0  
Month to date cooling degree days 0  
Year to date cooling degree days 1132  
Moisture  
Dew Point 21 °F    
Average Humidity 61    
Maximum Humidity 80    
Minimum Humidity 37    
Precipitation  
Precipitation 0.00 in 0.12 in 2.13 in (1900)
Month to date precipitation 2.85  
Year to date precipitation 38.69  
Sea Level Pressure  
Sea Level Pressure 30.04 in    
Wind  
Wind Speed 3 mph (SW)    
Max Wind Speed 13 mph    
Max Gust Speed 17 mph    
Visibility 10 miles    
Events      
T = Trace of Precipitation, MM = Missing Value Source: NWS Daily Summary

Daily Weather History Graph

Daily Weather History Graph

Search for Another Location

Airport:

Trip Planner

Search our weather history database for the weather conditions in past years. The results will help you decide how hot, cold, wet, or windy it might be!

Date:

Astronomy

Nov. 25, 2012 Rise Set
Actual Time 7:22 AM EST 5:08 PM EST
Civil Twilight 6:53 AM EST 5:37 PM EST
Nautical Twilight 6:20 AM EST 6:10 PM EST
Astronomical Twilight 5:48 AM EST 6:42 PM EST
Moon 3:23 PM EST (11/25) 4:36 AM EST (11/25)
Length of Visible Light 10h 44m
Length of Day
9h 45m
Waxing Gibbous, 93% of the Moon is Illuminated
Nov 25
Waxing Gibbous
Nov 28
Full
Dec 6
Last Quarter
Dec 13
New
Dec 20
First Quarter

Hourly Weather History & Observations

Time (EST) Temp. Windchill Dew Point Humidity Pressure Visibility Wind Dir Wind Speed Gust Speed Precip Events Conditions
12:15 AM 30.2 °F - 21.2 °F 69% 30.15 in 10.0 mi Calm Calm - N/A   Overcast
12:35 AM 30.2 °F - 21.2 °F 69% 30.15 in 10.0 mi Calm Calm - N/A   Overcast
12:55 AM 28.4 °F - 21.2 °F 74% 30.13 in 10.0 mi Calm Calm - N/A   Scattered Clouds
1:15 AM 28.4 °F - 21.2 °F 74% 30.13 in 10.0 mi Calm Calm - N/A   Clear
1:35 AM 26.6 °F - 21.2 °F 80% 30.13 in 10.0 mi Calm Calm - N/A   Clear
1:55 AM 26.6 °F - 21.2 °F 80% 30.13 in 10.0 mi Calm Calm - N/A   Clear
2:15 AM 26.6 °F - 19.4 °F 74% 30.13 in 10.0 mi Calm Calm - N/A   Clear
2:35 AM 24.8 °F - 19.4 °F 80% 30.13 in 10.0 mi Calm Calm - N/A   Clear
2:55 AM 26.6 °F - 19.4 °F 74% 30.12 in 10.0 mi Calm Calm - N/A   Clear
3:15 AM 26.6 °F - 21.2 °F 80% 30.12 in 10.0 mi Calm Calm - N/A   Clear
3:35 AM 28.4 °F - 21.2 °F 74% 30.13 in 10.0 mi Calm Calm - N/A   Clear
3:55 AM 28.4 °F - 23.0 °F 80% 30.12 in 10.0 mi Calm Calm - N/A   Scattered Clouds
4:15 AM 30.2 °F - 21.2 °F 69% 30.13 in 10.0 mi Calm Calm - N/A   Scattered Clouds
4:35 AM 30.2 °F - 21.2 °F 69% 30.12 in 10.0 mi Calm Calm - N/A   Scattered Clouds
4:55 AM 30.2 °F 26.7 °F 21.2 °F 69% 30.12 in 10.0 mi South 3.5 mph - N/A   Clear
5:15 AM 30.2 °F 26.7 °F 21.2 °F 69% 30.12 in 10.0 mi SSW 3.5 mph - N/A   Clear
5:35 AM 30.2 °F - 21.2 °F 69% 30.12 in 10.0 mi Calm Calm - N/A   Clear
5:55 AM 30.2 °F 26.7 °F 21.2 °F 69% 30.11 in 10.0 mi South 3.5 mph - N/A   Clear
6:15 AM 30.2 °F - 21.2 °F 69% 30.12 in 10.0 mi Calm Calm - N/A   Clear
6:35 AM 30.2 °F 24.3 °F 21.2 °F 69% 30.12 in 10.0 mi SSW 5.8 mph - N/A   Clear
6:55 AM 30.2 °F 26.7 °F 21.2 °F 69% 30.12 in 10.0 mi SSW 3.5 mph - N/A   Clear
7:15 AM 30.2 °F 26.7 °F 21.2 °F 69% 30.11 in 10.0 mi South 3.5 mph - N/A   Clear
7:35 AM 30.2 °F 26.7 °F 21.2 °F 69% 30.11 in 10.0 mi SSW 3.5 mph - N/A   Clear
7:55 AM 30.2 °F 26.7 °F 21.2 °F 69% 30.12 in 10.0 mi SW 3.5 mph - N/A   Clear
8:15 AM 30.2 °F 25.4 °F 21.2 °F 69% 30.10 in 10.0 mi SSW 4.6 mph - N/A   Scattered Clouds
8:35 AM 32.0 °F 25.6 °F 21.2 °F 64% 30.10 in 10.0 mi SSW 6.9 mph - N/A   Scattered Clouds
8:55 AM 32.0 °F 25.6 °F 21.2 °F 64% 30.09 in 10.0 mi SW 6.9 mph - N/A   Mostly Cloudy
9:15 AM 32.0 °F 24.2 °F 21.2 °F 64% 30.09 in 10.0 mi SSW 9.2 mph - N/A   Scattered Clouds
9:35 AM 32.0 °F 23.0 °F 21.2 °F 64% 30.07 in 10.0 mi SSW 11.5 mph - N/A   Clear
9:55 AM 33.8 °F 27.0 °F 23.0 °F 65% 30.06 in 10.0 mi SW 8.1 mph - N/A   Mostly Cloudy
10:15 AM 33.8 °F 27.7 °F 23.0 °F 65% 30.06 in 10.0 mi SSW 6.9 mph - N/A   Mostly Cloudy
10:35 AM 35.6 °F 27.5 °F 21.2 °F 56% 30.06 in 10.0 mi SW 11.5 mph 17.3 mph N/A   Mostly Cloudy
10:55 AM 35.6 °F 28.0 °F 21.2 °F 56% 30.05 in 10.0 mi SW 10.4 mph 16.1 mph N/A   Overcast
11:15 AM 35.6 °F 28.0 °F 21.2 °F 56% 30.05 in 10.0 mi SSW 10.4 mph 16.1 mph N/A   Scattered Clouds
11:35 AM 35.6 °F 28.0 °F 21.2 °F 56% 30.03 in 10.0 mi SW 10.4 mph - N/A   Clear
11:55 AM 35.6 °F 27.1 °F 21.2 °F 56% 30.01 in 10.0 mi SW 12.7 mph 16.1 mph N/A   Clear
12:15 PM 37.4 °F 32.8 °F 21.2 °F 52% 30.00 in 10.0 mi SW 5.8 mph - N/A   Clear
12:35 PM 37.4 °F 32.8 °F 21.2 °F 52% 30.00 in 10.0 mi SW 5.8 mph - N/A   Clear
12:55 PM 41.0 °F 35.8 °F 21.2 °F 45% 29.98 in 10.0 mi SW 8.1 mph - N/A   Clear
1:15 PM 42.8 °F 36.6 °F 21.2 °F 42% 29.98 in 10.0 mi WSW 11.5 mph - N/A   Clear
1:35 PM 42.8 °F 37.5 °F 19.4 °F 39% 29.97 in 10.0 mi SW 9.2 mph - N/A   Clear
1:55 PM 44.6 °F 40.2 °F 19.4 °F 37% 29.96 in 10.0 mi South 8.1 mph - N/A   Clear
2:15 PM 44.6 °F 40.7 °F 21.2 °F 39% 29.96 in 10.0 mi SW 6.9 mph - N/A   Clear
2:35 PM 44.6 °F 39.2 °F 21.2 °F 39% 29.95 in 10.0 mi SW 10.4 mph - N/A   Clear
2:55 PM 44.6 °F 40.7 °F 19.4 °F 37% 29.94 in 10.0 mi SSW 6.9 mph - N/A   Clear
3:15 PM 44.6 °F 39.7 °F 19.4 °F 37% 29.94 in 10.0 mi SW 9.2 mph - N/A   Clear
3:35 PM 44.6 °F 40.7 °F 19.4 °F 37% 29.93 in 10.0 mi SW 6.9 mph - N/A   Clear
3:55 PM 42.8 °F 38.0 °F 19.4 °F 39% 29.94 in 10.0 mi SW 8.1 mph 16.1 mph N/A   Clear
4:15 PM 42.8 °F 38.0 °F 19.4 °F 39% 29.94 in 10.0 mi SW 8.1 mph - N/A   Clear
4:35 PM 42.8 °F 38.6 °F 19.4 °F 39% 29.95 in 10.0 mi SW 6.9 mph - N/A   Clear
4:55 PM 42.8 °F 41.1 °F 19.4 °F 39% 29.95 in 10.0 mi SSW 3.5 mph - N/A   Clear
5:15 PM 41.0 °F - 19.4 °F 42% 29.96 in 10.0 mi Calm Calm - N/A   Clear
5:35 PM 37.4 °F 34.9 °F 21.2 °F 52% 29.97 in 10.0 mi SSW 3.5 mph - N/A   Clear
5:55 PM 37.4 °F - 21.2 °F 52% 29.97 in 10.0 mi Calm Calm - N/A   Scattered Clouds
6:15 PM 37.4 °F - 21.2 °F 52% 29.97 in 10.0 mi Calm Calm - N/A   Mostly Cloudy
6:35 PM 35.6 °F - 23.0 °F 60% 29.98 in 10.0 mi Calm Calm - N/A   Scattered Clouds
6:55 PM 35.6 °F - 23.0 °F 60% 29.99 in 10.0 mi Calm Calm - N/A   Clear
7:15 PM 33.8 °F - 21.2 °F 60% 29.99 in 10.0 mi Calm Calm - N/A   Clear
7:35 PM 33.8 °F - 23.0 °F 65% 29.99 in 10.0 mi Calm Calm - N/A   Clear
7:55 PM 33.8 °F - 21.2 °F 60% 30.00 in 10.0 mi Calm Calm - N/A   Clear
8:15 PM 33.8 °F - 23.0 °F 65% 30.00 in 10.0 mi Calm Calm - N/A   Clear
8:35 PM 33.8 °F - 23.0 °F 65% 30.01 in 10.0 mi Calm Calm - N/A   Clear
8:55 PM 33.8 °F - 21.2 °F 60% 30.01 in 10.0 mi Calm Calm - N/A   Clear
9:15 PM 33.8 °F - 23.0 °F 65% 30.02 in 10.0 mi Calm Calm - N/A   Clear
9:35 PM 32.0 °F - 23.0 °F 69% 30.02 in 10.0 mi Calm Calm - N/A   Clear
9:55 PM 33.8 °F - 23.0 °F 65% 30.02 in 10.0 mi Calm Calm - N/A   Clear
10:15 PM 33.8 °F - 21.2 °F 60% 30.02 in 10.0 mi Calm Calm - N/A   Clear
10:35 PM 33.8 °F - 23.0 °F 65% 30.02 in 10.0 mi Calm Calm - N/A   Scattered Clouds
10:55 PM 33.8 °F - 26.6 °F 75% 30.03 in 10.0 mi Calm Calm - N/A   Clear
11:15 PM 33.8 °F - 24.8 °F 70% 30.03 in 10.0 mi Calm Calm - N/A   Mostly Cloudy
11:35 PM 33.8 °F - 24.8 °F 70% 30.04 in 10.0 mi Calm Calm - N/A   Overcast
11:55 PM 33.8 °F - 26.6 °F 75% 30.04 in 10.0 mi Calm Calm - N/A   Mostly Cloudy